RH
28 33 34 34 33 30 27 23 22 25 25 25 25 23 21 21 22 17 16 16 14 21 28 30 25 25 52 69 61 60 64 64 65 68 72 73 74 76 77 78 79 80 80 80 81 81 81 82 78 72 66 59 54 50 49 49 49 48 49 50 50 51 51 50 50 51 52 54 58 60 61 58 53 56 61 61 61 63 66 72 76 77 77 79 80 82
28 37 36 30 29 27 26 23 23 24 22 23 24 23 22 20 19 15 13 14 13 18 25 28 27 26 46 66 62 60 64 64 64 66 69 71 72 74 76 77 77 78 79 80 82 81 82 85 84 79 71 65 59 53 50 49 48 48 48 48 48 50 50 48 48 50 50 51 54 56 56 57 54 53 55 58 60 62 65 69 73 75 77 78 79 80
30 35 31 27 26 26 26 23 22 22 20 20 21 20 21 18 17 16 13 14 13 14 20 24 24 25 43 62 62 60 62 61 61 63 65 67 70 72 74 75 75 77 78 79 80 80 81 83 84 83 77 68 58 53 49 46 48 49 48 47 47 48 49 47 47 49 50 49 50 53 54 56 56 52 52 56 61 65 66 66 68 71 73 75 76 77
31 29 26 24 24 24 25 25 22 21 20 20 19 19 20 17 16 19 18 16 14 14 22 28 30 38 53 65 65 59 59 59 58 60 61 64 67 69 70 72 73 75 76 78 79 80 80 81 83 83 76 68 61 57 52 48 49 49 47 46 46 47 47 47 47 48 50 51 51 53 55 58 59 57 56 58 63 66 65 62 62 64 67 70 72 75
28 23 22 23 23 22 23 25 24 24 24 23 21 20 21 18 16 19 19 17 15 15 23 29 37 53 62 65 68 62 58 58 57 59 61 62 65 66 67 70 71 72 73 75 77 78 79 79 80 78 72 66 62 57 51 47 45 44 44 44 45 46 47 47 48 48 50 53 55 56 58 61 64 64 62 60 60 60 60 58 57 59 62 65 68 72
26 20 20 22 23 23 23 24 24 24 26 26 23 21 21 18 16 17 16 17 18 19 24 25 32 55 65 62 65 63 62 62 58 58 61 60 62 64 66 68 69 70 72 74 75 76 76 77 78 78 73 68 62 53 47 45 43 42 44 46 48 48 47 47 48 49 51 52 54 56 57 57 60 61 58 55 55 54 55 55 55 58 61 63 65 68
23 19 19 22 22 22 23 23 22 22 26 28 25 21 21 18 16 17 15 17 22 25 26 23 28 48 58 57 60 63 65 65 61 59 59 59 61 63 64 65 67 68 69 72 73 74 75 75 77 78 74 66 55 46 43 44 44 46 48 51 53 53 51 50 49 50 51 50 51 51 51 50 50 51 48 48 51 52 54 55 55 57 60 62 62 63
21 20 19 21 22 23 23 23 22 21 24 26 22 19 20 20 18 18 16 17 22 23 22 23 28 35 41 44 51 61 67 66 64 61 58 57 59 61 62 62 64 65 66 69 71 72 72 73 74 74 68 55 42 38 42 45 45 47 50 51 53 54 55 55 54 53 51 48 47 47 48 49 48 46 44 46 49 51 54 56 56 56 58 60 59 59
19 21 21 20 20 23 22 20 21 20 21 22 18 18 18 17 18 17 16 18 22 20 17 22 27 28 37 47 48 56 67 67 65 62 57 56 56 57 60 60 61 62 62 64 67 68 68 69 68 65 58 45 36 37 41 41 40 42 47 50 52 54 56 57 57 57 53 48 46 44 45 47 47 46 45 47 48 50 52 53 55 56 58 60 58 57
18 18 18 18 19 21 19 18 19 18 20 20 17 18 17 15 17 20 19 17 21 23 19 22 24 22 35 51 49 54 66 65 60 59 54 52 52 54 56 58 59 59 60 62 63 63 63 61 59 57 54 47 42 45 43 39 38 42 46 51 53 53 54 55 57 57 54 52 50 46 44 44 44 46 47 48 49 49 51 52 53 54 58 60 57 55
18 15 15 17 17 17 17 18 18 17 18 17 17 17 17 18 20 25 30 23 19 23 20 19 23 20 25 40 45 49 55 53 52 53 52 49 49 50 53 54 56 57 57 58 60 60 58 56 56 59 62 58 55 57 56 52 49 48 49 52 52 52 52 54 55 56 55 55 54 51 46 43 41 43 46 47 47 47 49 50 51 52 55 57 56 55
17 18 20 18 15 14 17 18 17 18 17 15 18 17 19 29 26 20 26 24 19 24 20 17 23 22 20 30 39 39 38 40 44 46 47 47 46 46 48 50 52 54 54 55 56 58 57 57 59 63 65 63 63 66 66 63 60 56 54 54 54 54 54 55 55 56 56 56 56 54 50 46 42 41 43 44 43 44 44 45 46 49 51 53 54 55
18 19 20 16 15 14 17 20 18 19 19 17 22 21 23 35 30 20 25 26 24 27 24 20 20 20 23 30 34 32 32 33 35 37 39 41 42 42 44 46 48 50 51 52 53 54 55 56 58 59 58 60 63 64 63 64 63 60 57 55 54 54 54 56 57 57 58 57 56 55 54 52 49 47 46 45 43 44 44 44 45 46 47 48 50 50
21 18 16 14 16 16 16 21 21 22 23 20 23 25 26 32 29 28 32 29 26 26 27 24 20 22 27 29 26 24 28 29 27 30 32 33 37 38 39 41 44 47 48 49 50 50 52 51 51 53 50 53 58 58 57 59 60 59 57 56 54 52 52 54 55 57 58 58 56 56 56 56 56 54 52 50 48 47 46 45 45 45 44 45 45 45
24 22 21 15 16 18 16 18 19 23 23 19 20 21 25 31 31 30 30 28 29 30 29 24 23 28 27 25 24 18 20 26 24 24 26 27 31 32 34 37 40 44 45 46 47 47 48 47 47 48 47 47 50 51 54 56 57 56 54 54 53 52 53 53 54 55 56 56 56 57 58 59 59 58 56 54 52 51 50 46 45 44 43 44 43 43
22 23 21 14 15 17 17 17 15 18 21 18 18 20 22 25 25 26 30 31 29 26 27 28 32 38 32 26 29 20 18 25 24 23 23 24 26 27 30 33 35 40 42 43 45 44 45 45 45 47 47 46 45 47 50 52 54 54 51 49 49 48 50 52 53 53 54 54 55 56 58 59 60 60 59 58 57 55 53 49 46 44 42 42 42 43
21 22 18 12 16 16 15 18 14 15 22 20 18 19 20 17 14 21 29 28 21 20 28 32 32 35 30 24 27 23 22 27 27 26 24 21 23 24 25 28 31 35 38 40 42 42 43 44 44 45 45 45 46 46 46 45 46 48 48 48 46 45 49 51 52 53 53 54 55 55 57 59 61 62 61 60 59 57 57 55 51 48 45 44 43 42
21 23 20 12 15 14 12 16 14 13 18 19 18 17 14 13 14 22 26 22 21 23 28 30 28 28 27 29 34 28 24 28 28 28 26 22 22 22 22 24 26 29 33 35 38 39 40 41 42 43 43 43 43 42 40 37 38 42 45 45 44 43 45 46 47 49 51 53 55 55 56 58 60 61 61 61 60 60 60 59 56 53 50 48 46 44
18 20 20 13 13 14 12 15 17 14 12 13 16 14 15 19 19 24 28 24 24 26 25 29 33 31 28 32 36 29 25 28 28 29 28 25 24 22 21 21 22 24 28 32 35 37 38 40 40 40 41 41 42 41 38 37 40 44 45 45 44 41 37 38 41 45 48 51 53 53 54 55 57 59 60 61 62 63 63 61 57 54 51 49 48 46
17 20 23 15 12 14 14 15 17 17 13 12 13 11 14 20 18 20 26 25 26 28 26 26 27 26 28 30 29 27 27 27 26 30 31 26 24 23 21 20 20 21 23 27 31 33 34 36 37 37 37 38 40 41 40 41 45 47 46 46 46 44 42 42 43 44 46 48 50 53 54 55 57 58 60 61 63 63 64 62 58 54 51 51 49 47
17 19 23 19 13 14 17 17 15 16 15 14 15 14 13 14 14 16 19 20 22 25 27 25 18 19 30 33 25 23 27 27 25 28 29 27 24 22 21 20 19 20 21 23 26 28 31 32 34 35 34 35 38 40 41 44 46 45 46 47 46 46 46 45 44 44 44 46 49 53 55 56 57 58 59 61 62 63 63 63 61 56 54 53 51 48
34 27 20 17 16 15 18 15 12 13 14 13 15 15 13 13 15 18 20 19 18 22 30 27 16 16 29 33 25 22 25 25 25 26 26 27 25 22 22 20 19 19 19 20 21 24 27 29 31 33 34 35 39 41 43 45 46 46 48 47 46 46 46 42 42 42 43 45 47 49 50 53 55 56 57 59 60 61 62 62 61 58 57 56 53 48
52 45 27 20 21 17 16 14 12 12 12 12 14 13 12 14 15 17 21 22 18 22 31 29 21 20 26 29 25 24 24 22 24 26 25 25 23 23 23 20 19 20 19 20 21 22 25 26 27 30 32 35 37 39 42 43 44 46 46 45 46 46 43 40 40 41 43 45 46 46 49 52 54 56 57 58 58 59 60 60 60 59 59 58 54 48
50 49 35 27 26 19 15 15 15 14 13 12 13 13 11 13 12 11 20 28 23 19 24 26 21 19 28 37 30 24 25 23 22 24 24 24 21 21 22 21 21 21 21 22 22 22 24 24 25 28 30 33 35 38 41 41 42 44 44 46 47 43 39 39 42 44 46 46 45 47 50 52 55 57 57 57 57 58 59 59 60 59 60 61 58 51
49 53 40 28 27 22 17 19 17 15 16 15 16 14 11 12 11 9 19 27 22 19 21 21 19 23 39 50 38 29 30 25 20 21 22 23 22 21 21 21 21 21 22 23 24 24 25 24 25 27 28 30 32 35 38 39 40 41 43 45 44 40 39 41 45 48 49 48 48 49 50 52 55 57 57 58 58 58 59 59 59 60 61 63 62 54
56 64 48 32 32 29 26 33 33 28 24 19 16 14 13 13 10 10 17 21 23 28 23 17 26 36 39 35 27 28 31 26 21 21 22 22 20 19 19 18 18 20 20 22 23 24 25 24 24 24 25 27 28 31 34 36 38 38 39 41 41 39 40 42 45 48 49 50 50 49 48 50 52 54 55 57 57 57 58 58 59 60 62 63 63 59
62 70 57 44 44 41 40 47 47 41 36 28 20 16 14 14 12 11 14 17 27 35 25 20 33 34 23 18 20 25 28 26 22 21 21 20 16 14 16 17 18 20 19 20 22 23 25 25 24 23 24 25 26 28 30 31 34 36 37 38 39 41 42 42 44 47 49 50 50 49 48 47 48 51 53 54 55 56 56 56 57 59 61 63 63 60
65 67 57 52 53 49 47 46 41 40 42 39 33 23 15 14 14 13 14 18 29 30 21 27 38 27 16 19 21 22 25 26 24 22 21 18 14 13 16 17 19 19 18 20 22 23 25 25 24 24 23 24 25 26 27 29 31 32 34 35 37 41 43 42 44 47 48 50 51 49 46 45 47 49 50 51 53 55 55 55 56 58 60 61 60 58
63 67 59 53 53 48 44 42 39 40 41 38 36 29 18 16 15 14 16 20 25 21 14 26 38 28 20 22 21 22 24 22 19 17 14 12 10 10 10 11 13 15 16 18 20 21 23 23 24 25 23 24 25 25 27 28 29 31 33 34 36 39 39 41 44 44 46 49 48 44 42 45 49 50 51 52 54 55 55 54 55 57 59 58 56 55
58 73 64 52 52 50 44 42 40 39 39 36 34 30 21 17 14 13 15 17 19 19 15 24 36 29 18 17 17 18 20 18 15 12 9 9 8 7 7 8 9 12 14 16 17 19 21 21 22 23 24 24 25 26 27 26 27 29 30 32 35 36 37 40 44 44 45 46 42 39 42 46 50 52 52 52 53 54 55 54 55 57 58 56 54 52
52 67 61 51 58 56 45 43 40 36 38 39 38 35 26 20 16 12 14 15 17 20 18 21 33 32 23 21 19 15 14 14 14 12 10 9 7 6 8 9 9 10 11 12 13 16 18 20 20 23 25 25 24 25 26 26 26 27 27 30 32 33 35 39 42 44 44 42 39 40 44 48 51 54 54 52 52 54 55 55 55 56 57 56 52 48
54 63 62 59 67 63 47 43 40 35 38 39 35 35 31 24 19 13 13 16 17 20 20 20 25 28 26 26 23 19 18 18 17 16 12 9 9 10 10 10 9 8 8 8 9 12 15 17 19 21 23 24 24 24 24 25 26 26 27 29 29 31 36 40 41 42 41 40 42 44 45 48 52 55 55 54 53 54 55 55 55 54 56 56 51 46
60 60 62 63 73 70 50 41 43 42 43 37 27 29 28 21 19 17 14 16 15 15 18 18 17 18 21 24 21 17 18 19 20 18 13 11 12 13 12 11 8 7 7 8 9 10 12 14 16 18 19 21 24 23 22 23 24 25 25 25 27 31 36 38 39 39 38 41 46 47 46 50 54 55 56 56 57 57 56 55 54 53 54 54 52 48
62 60 63 64 73 72 51 44 49 50 46 35 31 45 48 32 22 17 14 16 16 12 13 14 13 15 19 21 18 14 15 17 18 19 19 18 15 14 14 12 10 10 10 8 8 10 12 14 15 16 17 19 21 21 22 24 24 23 23 25 28 32 35 35 36 37 38 41 45 46 46 49 52 54 55 58 60 60 57 55 53 52 53 53 53 53
61 62 65 64 68 67 56 53 56 54 46 34 36 59 69 56 42 29 16 13 13 13 13 13 15 16 17 19 16 12 15 22 28 35 39 37 30 24 19 13 11 13 11 8 7 8 13 16 17 17 17 17 18 21 24 25 25 25 27 29 30 32 33 34 34 35 38 41 45 48 49 49 51 55 58 60 62 62 59 55 53 53 53 53 53 55
57 58 61 64 64 63 64 65 61 52 42 39 51 69 74 73 73 62 37 17 15 20 16 12 17 17 16 20 16 10 19 33 45 54 57 52 43 33 24 17 15 15 13 12 11 10 14 16 16 18 19 18 19 21 23 25 25 27 29 30 30 32 34 37 38 38 40 43 45 48 49 49 51 56 61 63 65 65 62 57 54 53 54 54 54 56
52 56 56 59 59 58 63 66 61 53 49 57 75 80 75 78 85 87 77 55 45 46 34 16 15 18 20 24 19 17 29 41 49 58 63 58 51 41 32 28 25 24 23 21 18 18 19 19 17 19 21 20 22 23 24 25 28 30 31 32 33 34 37 41 42 40 40 42 43 46 50 53 55 59 62 65 67 66 62 58 55 54 55 56 56 57
46 51 50 51 55 58 57 56 62 66 65 72 82 79 74 75 75 83 92 78 65 71 64 39 23 18 24 33 32 33 41 42 43 54 62 61 57 51 45 39 35 34 33 28 24 23 24 23 22 22 23 23 23 23 24 26 28 31 34 35 36 37 39 40 39 37 38 39 40 44 51 55 55 55 56 57 57 56 55 55 54 54 55 56 57 58
44 46 43 44 53 61 58 59 69 72 68 77 88 81 73 76 80 80 76 65 66 83 87 74 54 33 24 34 43 45 41 33 38 56 67 64 58 55 53 49 45 44 41 35 29 27 26 26 25 25 25 25 24 24 25 27 29 32 34 35 36 36 35 34 32 32 33 35 38 43 50 53 52 51 51 50 49 50 50 51 52 54 57 57 56 57
47 48 50 46 48 56 59 64 72 68 65 79 91 84 75 78 83 74 58 58 78 89 86 87 86 63 38 36 43 44 36 26 33 55 71 69 62 58 55 53 51 49 46 39 31 26 26 25 26 28 29 28 28 28 27 29 32 34 34 35 36 36 33 30 27 27 29 34 39 43 46 48 47 46 47 46 46 49 51 52 54 57 60 61 62 63
52 49 56 52 46 50 55 58 62 62 68 83 88 82 78 74 65 57 57 71 87 87 81 90 99 89 67 45 35 41 50 48 48 62 75 72 65 63 60 55 53 52 50 46 40 33 29 24 23 26 30 32 34 33 31 31 33 35 36 36 37 35 31 28 28 30 32 36 39 42 43 44 43 41 39 39 42 47 50 52 55 57 60 65 69 71
70 59 60 55 50 59 65 62 60 60 70 87 89 79 75 72 66 66 75 83 84 83 89 97 100 99 89 67 51 61 79 79 70 72 75 69 64 64 62 56 52 50 50 49 46 43 39 31 26 26 28 32 36 36 36 36 34 35 37 38 35 32 30 33 35 36 38 40 42 44 46 46 44 41 40 43 48 51 50 50 54 58 62 67 71 75
84 79 75 61 54 72 86 79 71 71 77 87 88 80 79 84 85 82 81 80 81 85 94 101 100 99 99 91 85 91 97 92 82 77 74 70 66 64 60 55 49 45 44 44 42 43 42 38 35 35 35 35 37 37 39 41 39 37 37 35 33 32 34 37 38 38 40 42 42 44 46 46 47 46 47 51 55 56 55 53 53 55 59 65 73 79
87 90 92 76 63 74 86 80 77 87 91 88 85 86 88 87 83 82 81 81 84 85 89 96 100 100 100 99 99 99 100 99 93 85 80 76 69 62 59 56 52 47 45 43 42 42 42 39 42 47 48 47 46 44 43 44 45 45 42 38 36 37 39 40 41 42 43 43 42 43 43 46 49 50 51 54 56 58 59 58 56 56 56 59 66 75
87 86 93 92 83 83 85 83 85 95 97 91 86 87 87 82 79 83 85 85 86 87 88 93 98 100 100 99 100 99 99 101 98 89 82 77 68 61 60 58 54 52 50 48 46 45 42 42 45 49 52 55 58 58 57 55 54 54 53 50 48 47 46 44 43 44 44 44 45 46 46 49 52 53 53 55 58 59 59 59 62 66 67 64 61 62
76 75 85 94 95 91 88 90 95 96 95 94 90 82 75 74 79 83 85 85 85 86 88 91 96 100 101 99 99 100 100 100 96 85 75 67 59 53 51 47 45 44 42 41 42 44 45 46 46 45 46 49 52 57 60 63 64 64 64 63 61 59 56 53 51 50 47 46 46 47 49 51 53 55 56 57 58 60 59 59 60 63 70 76 76 72
72 75 85 93 95 92 90 93 97 98 96 92 88 79 71 73 79 79 78 80 81 82 85 88 90 93 97 99 99 99 100 99 91 79 69 62 56 50 45 41 38 35 32 31 33 36 38 40 41 43 44 44 45 46 48 52 57 62 65 67 67 67 66 64 63 61 59 57 55 53 53 53 52 54 57 58 60 61 63 65 65 63 67 76 82 87
78 78 86 92 95 94 93 94 96 99 92 78 68 66 69 74 76 73 72 75 79 82 84 85 83 80 81 86 91 96 99 96 88 80 73 67 63 57 51 48 46 43 40 38 35 33 32 32 34 37 39 41 42 42 41 41 43 46 50 55 61 66 71 73 72 71 71 71 69 66 62 60 57 56 57 58 60 61 64 68 71 71 71 71 72 78
80 86 90 92 95 93 91 94 97 97 93 83 70 64 67 71 71 68 69 72 77 81 83 85 86 82 77 77 81 90 98 97 93 91 87 81 78 71 63 58 56 52 51 49 45 42 40 38 37 38 38 40 41 42 41 39 38 37 38 42 48 56 65 70 73 74 75 75 76 76 73 69 66 63 61 60 60 61 63 66 68 70 69 67 66 67
87 95 93 94 100 97 91 93 95 92 92 93 82 68 66 70 68 66 69 71 76 81 82 84 89 90 86 82 79 84 95 99 97 98 98 95 94 89 80 72 66 61 59 56 52 50 49 48 49 50 50 50 48 46 45 43 41 40 40 41 45 50 55 61 64 67 70 73 77 80 78 76 73 70 68 67 66 65 65 65 68 70 69 67 67 68
89 92 90 94 99 95 90 93 96 92 91 90 78 65 64 64 57 57 63 66 70 79 82 83 88 91 91 88 79 78 89 97 98 99 99 99 98 96 91 86 81 77 74 70 65 65 66 67 67 66 64 61 56 55 56 54 52 51 50 50 51 51 52 54 55 57 61 65 72 79 82 83 80 76 74 75 76 78 79 76 73 73 73 75 75 73
Wind_Speed
13 6 6 9 7 8 8 9 9 4 4 5 4 3 5 5 7 6 5 5 2 2 6 6 8 10 7 8 11 20 26 22 20 21 23 27 29 31 33 34 36 40 42 40 40 41 41 41 41 40 39 37 37 36 36 36 35 35 35 35 35 34 34 33 33 33 33 33 31 31 31 31 30 28 27 26 25 24 24 23 22 21 20 18 16 15
12 9 9 10 7 7 8 7 8 7 6 6 5 5 5 6 8 8 5 6 2 2 7 6 5 8 7 8 9 17 19 17 22 23 25 30 31 33 34 36 38 38 37 36 38 41 41 41 41 41 41 39 39 38 37 36 36 35 35 35 35 35 35 34 34 34 34 34 32 32 31 30 29 28 27 26 25 25 24 24 23 22 20 19 17 16
7 9 9 9 7 7 7 7 9 9 8 6 5 4 6 6 5 7 6 5 2 3 7 7 7 7 6 8 10 15 17 21 31 34 34 37 34 34 36 38 39 35 34 36 39 41 42 42 42 42 42 41 40 39 38 37 36 36 36 36 36 35 36 35 35 35 34 34 32 31 30 29 29 28 28 26 25 25 25 24 23 22 21 20 18 17
6 7 8 11 8 9 7 7 9 7 6 6 5 5 6 4 2 4 5 4 2 4 4 3 4 5 2 6 9 16 21 21 27 32 32 35 36 39 42 42 41 38 37 38 39 41 42 43 43 44 44 44 42 41 39 38 37 37 37 37 37 36 37 36 35 35 34 33 32 31 31 29 28 28 27 27 26 26 25 24 23 22 21 21 20 18
7 6 8 13 10 11 8 6 8 6 5 5 6 8 7 4 4 5 4 5 4 3 2 1 3 6 2 6 7 13 17 15 18 23 23 26 32 35 35 35 38 40 41 41 40 42 43 45 46 47 46 45 44 43 41 40 39 38 38 38 38 38 37 37 36 35 34 33 33 33 33 31 30 30 29 29 29 29 27 26 24 23 22 21 20 19
9 6 8 12 10 11 11 8 8 8 6 6 9 12 8 5 4 4 3 5 5 5 3 2 2 6 3 6 7 7 10 13 15 17 21 26 29 30 29 31 36 38 39 40 41 43 44 46 47 47 47 46 46 44 42 41 39 39 38 37 38 38 38 38 37 36 35 35 35 35 35 35 34 34 33 33 32 30 29 27 25 24 22 21 20 20
6 6 8 10 10 11 11 10 9 9 6 8 8 8 7 7 6 5 2 1 2 5 5 2 4 5 5 5 7 7 10 15 14 13 19 25 28 30 32 33 36 38 38 39 41 42 44 46 47 47 49 49 48 45 42 41 40 39 38 36 36 37 38 38 37 37 37 37 37 37 37 37 36 36 35 33 31 30 29 27 25 24 22 21 21 20
6 10 9 9 10 9 10 9 8 11 8 7 5 9 8 8 8 7 5 5 4 4 5 2 4 4 6 6 8 9 11 12 13 13 16 22 28 32 34 35 37 40 41 41 42 43 45 47 49 50 52 51 48 45 44 42 40 39 38 37 36 36 36 37 36 36 37 38 39 38 38 38 38 37 35 32 31 30 29 28 26 25 23 22 22 21
8 12 12 12 10 7 8 7 9 12 10 4 7 9 7 8 7 6 6 5 3 1 7 5 5 4 7 5 4 8 11 11 14 17 15 19 29 33 35 37 39 41 42 43 44 45 47 49 51 53 53 51 49 47 46 43 41 40 39 38 38 37 37 36 36 35 36 37 39 39 39 39 38 37 35 33 32 31 30 29 27 26 25 24 23 22
5 14 18 13 9 8 7 7 11 13 10 4 5 3 2 4 3 3 5 4 1 2 9 8 5 5 7 4 2 6 9 12 14 16 15 20 30 34 36 38 39 41 42 43 44 46 48 50 52 54 54 53 51 50 48 45 43 42 41 40 40 39 39 38 37 36 35 36 37 40 41 40 39 38 36 35 34 33 31 30 28 27 27 25 24 23
2 10 16 10 9 11 8 7 10 13 10 4 4 3 1 2 2 2 1 2 1 7 9 8 7 6 7 4 6 6 8 13 13 12 14 18 26 32 35 38 40 41 42 44 45 46 47 49 51 51 52 53 52 51 50 49 47 45 44 43 43 41 40 40 39 38 37 36 36 38 40 41 40 39 38 37 36 35 33 31 29 28 28 27 25 24
4 3 6 6 12 13 7 6 8 9 9 5 3 4 1 4 2 0 2 3 6 9 5 7 8 7 8 6 7 8 10 15 15 14 16 17 24 33 36 39 42 43 44 44 45 46 47 47 47 48 49 51 50 50 50 50 50 49 47 46 45 45 44 44 43 41 39 38 37 37 38 40 40 40 39 38 36 35 34 32 31 29 29 28 27 26
6 5 3 4 12 14 8 5 5 4 6 6 4 6 4 3 1 3 2 2 7 8 2 5 6 5 9 6 7 11 11 13 14 17 20 21 27 35 37 41 44 44 44 45 46 48 48 48 48 48 51 52 50 51 51 51 51 51 50 49 48 47 47 46 46 44 42 40 39 38 38 38 38 39 39 37 36 34 33 32 31 31 30 29 28 28
4 5 5 4 6 12 12 7 5 4 5 8 5 6 6 4 3 5 5 3 4 5 3 4 5 3 6 4 9 13 13 16 20 24 28 30 34 39 43 46 45 44 46 47 48 48 49 51 51 51 53 53 52 52 53 52 52 52 51 51 50 49 48 47 47 46 45 44 41 40 39 38 38 38 39 38 36 34 32 31 30 31 30 30 29 28
6 5 8 10 6 10 13 10 8 7 5 7 6 6 5 5 6 5 4 4 4 4 3 2 4 4 3 4 9 13 15 21 26 31 34 35 38 42 45 44 41 42 46 47 48 49 51 54 53 53 54 54 54 54 53 53 53 53 53 52 52 51 50 49 49 48 47 46 44 42 41 40 39 38 38 38 36 34 33 31 30 29 29 30 29 28
9 8 6 10 8 12 13 9 8 9 5 5 5 5 6 6 5 3 4 6 3 1 2 2 3 5 4 5 7 7 12 17 22 27 28 30 36 38 36 33 35 40 45 46 48 50 52 53 53 53 54 54 55 54 53 54 54 55 54 53 53 51 51 51 50 50 49 47 45 44 44 43 41 39 38 37 37 35 34 32 31 30 29 29 29 28
6 7 2 4 6 11 14 11 10 9 5 2 5 7 6 5 6 4 4 2 1 2 4 2 3 5 4 5 6 6 8 10 14 17 19 26 33 32 28 29 35 41 44 47 50 53 54 53 52 53 54 54 54 54 55 55 55 55 55 54 53 52 52 52 51 51 50 49 47 46 45 44 43 42 40 38 37 35 35 34 32 31 29 29 28 29
4 5 3 7 8 11 14 14 10 11 10 6 6 7 3 5 4 4 2 2 2 4 5 2 5 5 3 5 5 5 8 9 11 13 14 21 26 26 27 31 36 40 45 49 52 53 53 53 53 54 55 55 55 56 57 57 56 56 55 54 53 52 51 51 51 51 50 50 49 48 47 46 45 44 42 40 38 36 35 35 34 33 31 30 29 29
2 4 5 8 12 7 8 10 6 8 10 6 5 7 5 3 4 3 3 4 4 4 5 3 5 5 6 5 3 5 9 10 11 12 13 16 18 22 28 32 35 39 42 45 47 49 50 52 54 55 55 56 55 56 56 57 56 56 55 55 54 53 50 49 49 50 50 50 50 49 48 46 45 44 43 42 40 39 37 36 34 33 33 31 30 30
2 3 5 6 8 6 5 6 6 6 7 3 2 5 4 3 4 4 4 4 4 4 3 4 5 5 7 7 6 8 11 11 11 11 11 14 18 25 30 33 36 39 41 43 46 49 51 53 55 56 57 56 56 56 56 55 55 55 56 55 55 54 52 51 51 51 50 50 50 50 49 47 46 45 44 43 42 41 39 37 35 34 33 32 31 31
1 4 5 4 1 5 4 5 9 9 8 5 4 5 4 2 2 3 2 3 4 4 3 3 6 5 5 6 10 11 11 11 12 12 11 14 22 30 34 37 39 41 42 44 46 49 52 54 54 56 57 56 55 55 54 53 54 55 55 55 56 55 54 54 53 52 52 51 50 50 50 49 48 46 45 44 44 43 40 38 36 35 34 33 32 31
2 2 4 2 1 3 4 8 13 15 12 10 7 7 7 4 4 4 4 3 3 5 5 4 6 7 4 5 8 10 10 10 12 13 11 14 23 30 35 40 43 43 44 46 48 50 51 52 53 54 55 55 53 52 52 52 52 53 54 55 56 56 55 55 55 54 53 52 51 51 50 49 48 47 46 45 44 43 41 39 37 36 35 35 33 32
1 1 3 3 3 4 6 8 10 13 13 12 10 9 8 6 6 6 7 4 3 3 2 3 5 9 5 7 9 9 10 11 13 13 12 16 25 30 34 40 43 43 45 46 46 46 47 50 52 52 52 53 52 52 52 51 52 53 54 55 56 56 56 56 55 54 53 53 52 51 50 49 49 48 47 46 46 44 42 39 37 37 37 36 34 33
4 1 3 3 3 3 5 6 5 4 6 8 8 8 8 8 8 8 6 4 4 4 2 2 7 8 5 5 8 8 8 9 11 13 14 17 24 29 33 37 38 39 41 40 38 39 42 45 48 48 49 51 51 51 51 52 53 53 54 55 55 56 57 57 56 55 54 54 53 52 51 51 50 50 49 48 47 45 43 40 37 37 38 37 36 34
4 1 1 0 2 4 4 5 5 4 1 4 6 7 9 11 11 7 3 4 4 7 8 6 8 7 5 3 4 6 7 6 9 13 15 17 21 24 26 31 35 36 36 36 34 35 37 40 44 47 48 50 51 51 51 52 53 53 54 54 55 56 56 56 56 55 55 55 54 53 52 52 51 51 51 49 47 46 43 40 38 38 38 38 37 36
2 1 1 2 5 7 5 5 5 2 3 3 3 8 12 13 14 10 4 4 6 7 9 7 7 6 6 4 5 7 6 7 10 11 12 16 21 21 21 26 31 32 34 36 35 35 37 40 44 47 49 50 52 52 52 53 53 54 54 55 55 56 56 56 56 56 55 55 54 54 54 53 53 52 51 50 48 46 43 41 38 38 39 39 38 37
1 1 0 3 4 4 2 5 4 1 3 5 4 6 11 13 15 12 8 8 6 5 7 8 7 5 7 5 6 7 6 8 10 9 9 16 21 22 21 23 24 26 30 34 35 37 37 39 43 47 49 50 51 52 53 53 54 54 54 55 55 55 55 55 55 55 55 55 54 55 54 53 53 52 51 49 47 46 43 40 38 38 39 38 38 37
2 3 2 1 1 2 3 9 10 5 4 6 8 9 10 12 15 15 14 9 8 6 10 10 8 7 8 7 8 9 8 7 9 9 11 15 18 19 18 18 19 22 26 29 32 35 37 39 43 46 48 49 50 51 52 53 53 54 54 55 55 54 54 54 54 55 55 55 55 55 54 53 53 52 50 49 48 46 44 40 38 37 38 38 38 38
3 2 3 3 6 7 6 10 11 7 5 7 10 12 11 12 16 19 17 10 10 10 14 10 10 10 8 8 9 10 9 9 11 12 12 12 13 15 17 18 20 22 24 27 31 34 37 39 42 45 47 49 49 50 51 51 52 53 53 54 54 54 54 54 54 55 55 55 56 55 54 53 52 52 50 49 48 47 45 41 39 38 37 37 38 38
1 2 3 4 7 9 9 9 8 6 5 7 10 11 12 14 16 18 16 12 12 13 12 8 10 11 9 8 9 11 11 10 9 10 10 11 13 14 16 20 22 22 24 26 30 33 36 38 40 44 47 48 49 49 50 51 52 53 53 54 54 54 54 54 54 55 55 56 56 54 53 53 52 52 51 50 49 48 46 43 40 39 38 37 37 38
1 1 4 4 5 8 9 7 6 8 8 9 10 10 11 13 15 15 13 10 10 11 10 9 9 9 8 6 7 11 11 6 6 8 12 17 18 16 17 20 21 21 21 23 26 30 33 36 39 42 44 47 48 49 50 51 52 53 53 53 54 54 54 54 54 55 55 56 55 54 53 53 53 52 52 51 50 49 47 44 42 40 39 38 38 39
1 1 3 4 3 5 6 6 10 13 12 10 12 11 10 10 10 10 9 9 10 10 10 12 10 7 7 6 7 11 11 7 7 9 16 21 19 17 18 20 20 19 19 20 21 24 29 34 38 41 44 46 48 49 50 50 51 52 52 53 54 54 53 53 54 55 55 55 54 54 54 53 53 53 52 51 50 49 48 46 44 42 40 40 39 40
1 1 1 2 1 5 7 7 10 11 9 8 8 7 8 10 10 9 8 9 11 12 10 12 11 8 8 7 7 9 10 9 10 11 15 18 16 15 18 21 21 21 20 20 20 21 24 28 33 38 42 45 47 49 50 50 50 51 51 52 53 52 52 53 54 54 54 54 54 53 53 53 53 53 52 51 51 50 49 48 46 45 43 41 40 41
3 2 1 1 1 4 9 9 7 5 5 5 2 1 4 8 11 13 13 10 11 12 11 10 8 8 9 9 9 12 13 11 10 10 10 11 11 13 17 20 21 22 22 22 22 23 24 25 28 33 38 42 45 46 48 49 50 50 49 50 50 51 52 53 53 54 54 54 54 53 53 53 53 52 52 51 50 50 50 49 48 46 44 42 42 43
3 2 2 2 2 3 7 6 3 6 7 4 5 5 4 4 3 7 14 16 14 13 13 10 8 9 10 10 14 19 15 8 5 4 4 6 9 11 15 19 20 21 23 23 24 26 25 24 25 29 33 38 41 43 46 47 48 48 48 49 49 50 52 52 53 53 53 53 53 53 52 52 52 52 51 50 50 50 50 50 49 48 46 45 44 45
5 3 2 2 2 2 3 2 4 7 8 8 7 7 7 6 9 9 9 14 11 9 10 10 10 10 8 10 16 18 12 9 7 5 4 4 6 9 14 18 20 21 23 23 23 25 24 22 22 24 27 31 36 40 43 45 46 48 48 49 49 50 51 51 51 52 51 52 52 52 52 52 52 51 50 49 50 50 50 50 50 49 48 46 46 46
9 5 3 3 3 3 3 4 4 6 10 7 3 5 4 2 4 4 4 8 7 3 6 9 9 10 8 8 12 14 13 10 5 2 2 3 5 8 11 14 16 17 17 18 19 21 20 19 20 21 23 27 31 35 38 40 43 45 46 47 48 48 48 48 49 49 50 50 51 51 51 51 51 50 49 49 49 50 50 50 49 49 48 48 48 48
12 9 6 5 4 4 3 4 3 3 4 3 2 1 1 3 4 3 3 5 6 3 3 4 8 11 9 5 8 13 13 8 4 3 3 4 5 5 6 7 8 9 9 10 12 15 15 15 16 17 19 22 25 27 31 35 39 41 42 44 45 46 46 47 47 47 48 49 49 49 50 49 49 49 48 48 49 49 49 49 49 48 48 48 49 49
13 10 6 5 5 5 4 4 3 3 5 5 3 4 5 5 1 5 2 6 4 8 12 9 7 10 10 7 10 12 10 5 6 6 4 7 8 8 8 5 3 1 2 3 5 8 9 10 11 11 12 15 18 21 25 30 35 38 40 42 43 44 45 46 45 44 45 47 48 48 49 48 47 47 48 48 48 48 48 48 48 48 48 48 48 48
11 8 7 7 7 6 6 5 3 3 5 4 3 7 10 7 2 5 3 6 5 13 19 14 10 11 11 10 13 12 7 7 7 7 8 11 11 12 11 10 9 8 6 4 1 1 3 4 5 6 6 7 8 12 18 24 29 34 37 38 41 43 44 44 42 41 42 44 46 47 48 47 46 46 46 46 46 46 47 47 47 47 48 49 49 48
8 7 7 8 8 7 8 5 4 4 4 3 4 8 11 8 3 6 5 5 10 19 23 18 14 13 10 11 14 10 6 7 11 14 13 13 14 14 13 13 13 13 13 11 9 7 5 3 1 1 3 4 3 5 10 16 23 28 32 35 39 42 42 42 41 40 41 42 44 46 47 47 46 45 44 44 44 44 45 45 46 47 48 49 49 49
5 5 7 9 8 6 6 5 4 5 3 2 3 5 9 4 3 3 7 13 16 21 23 19 15 13 8 7 11 9 12 14 16 17 14 13 14 14 14 14 14 14 15 15 14 13 12 10 8 5 0 3 4 5 7 11 17 22 28 33 37 38 39 40 41 41 40 42 44 45 46 47 46 45 45 45 46 46 45 44 45 46 47 48 49 49
3 3 5 8 7 5 4 5 6 5 3 3 3 3 7 2 4 6 11 15 17 19 21 18 14 13 9 1 5 10 16 17 16 16 14 13 13 13 13 14 13 13 13 14 15 15 15 14 14 12 8 4 2 4 6 8 12 16 22 28 30 32 34 37 38 38 39 41 43 44 45 47 46 46 46 47 48 48 47 45 45 46 47 48 49 50
3 4 3 4 5 5 5 6 5 4 3 2 2 3 3 2 6 8 7 8 15 19 20 16 13 12 10 6 4 7 12 14 15 15 14 13 13 13 14 14 14 13 13 13 14 14 14 14 15 15 13 10 7 4 4 5 8 11 16 20 22 25 28 30 32 35 37 39 41 42 44 46 46 47 47 48 48 48 48 48 48 47 48 49 49 50
3 3 3 4 4 4 5 5 4 6 5 5 8 9 7 2 5 7 5 5 10 15 17 16 13 12 11 7 3 4 8 12 14 15 15 15 14 15 16 15 14 14 13 12 11 11 12 12 12 12 12 11 10 7 5 4 6 9 12 15 17 19 22 25 28 31 33 36 38 40 42 44 46 47 48 49 49 49 49 50 50 50 51 52 51 52
9 10 8 5 5 6 7 5 7 8 6 7 11 13 10 6 5 6 7 7 8 9 11 12 11 10 11 10 7 7 9 13 15 16 16 16 16 16 15 14 14 13 11 10 10 10 10 10 9 8 8 9 8 7 5 3 3 5 8 11 12 14 17 21 25 28 30 33 35 37 39 41 44 46 47 49 50 50 51 51 51 52 53 53 54 54
7 9 6 5 6 6 5 3 6 7 7 8 11 14 13 9 6 8 11 11 9 8 6 6 8 10 15 18 14 11 11 13 15 17 17 18 18 17 16 15 14 12 10 9 9 9 8 8 7 7 7 6 5 4 4 3 2 1 3 6 7 9 12 16 20 23 25 28 30 33 35 38 41 43 46 48 49 51 52 52 52 53 54 55 55 54
6 10 8 6 7 6 5 1 4 7 8 7 7 10 13 10 8 12 14 12 11 10 6 5 7 10 16 20 19 15 13 12 14 15 17 18 19 19 18 17 15 14 12 11 10 9 8 8 8 8 7 7 5 5 4 4 4 5 5 6 7 7 9 11 15 17 19 20 23 26 30 33 36 39 43 46 48 50 52 53 54 55 56 57 57 56
11 10 8 6 7 8 9 5 4 6 4 5 9 9 10 10 11 14 15 11 10 10 9 6 6 10 15 19 20 18 13 11 12 13 15 17 18 17 17 17 15 14 14 13 12 11 10 9 9 8 8 7 7 7 7 7 8 8 8 9 10 10 10 10 12 15 16 17 19 22 26 29 32 35 39 42 46 49 51 53 55 56 58 59 59 59
10 7 6 6 6 6 7 5 5 4 1 4 11 13 10 8 8 10 10 9 8 9 11 10 6 10 16 18 19 19 14 9 9 12 14 16 17 17 17 17 16 16 15 15 14 13 12 12 12 10 8 7 6 7 7 8 9 9 10 10 11 12 12 12 12 13 14 15 17 20 23 27 30 34 37 40 43 47 50 53 54 56 57 59 60 60
8 7 7 7 6 8 12 12 5 1 1 6 13 15 11 7 2 3 5 6 6 6 7 10 10 10 16 17 18 19 15 7 5 9 14 17 17 18 18 18 18 18 17 16 15 15 15 14 13 12 11 9 7 5 5 6 6 6 8 9 10 11 13 13 14 14 13 13 14 16 19 23 27 31 34 37 39 41 44 49 54 57 57 59 60 62
Wind_Direction
170 184 216 207 206 195 198 204 199 177 176 210 206 206 232 247 260 259 268 272 262 280 263 238 229 237 215 195 188 179 180 185 185 183 188 192 196 199 200 202 204 207 210 209 208 209 210 212 212 212 212 212 211 212 213 214 216 216 217 218 219 219 219 218 217 217 216 216 216 216 217 217 217 217 217 219 220 220 220 218 219 221 220 221 223 227
172 204 223 204 194 184 190 190 184 190 202 225 239 251 259 250 261 268 264 264 256 278 279 272 252 248 221 202 192 178 180 189 187 185 192 195 197 201 202 203 206 209 210 209 209 210 211 212 213 213 213 213 213 213 213 214 216 217 217 219 219 219 219 219 217 217 217 217 217 218 218 217 218 218 219 221 222 223 222 220 222 223 223 224 226 231
195 224 212 188 181 171 180 178 173 188 193 208 224 228 252 245 268 278 264 268 238 216 272 278 257 257 225 189 189 188 190 196 194 192 194 194 195 199 202 204 206 207 207 208 210 209 210 212 212 213 214 214 214 213 213 215 217 218 219 220 220 220 220 220 219 219 219 219 219 221 221 220 220 221 222 224 224 226 226 224 225 226 226 227 229 234
210 236 191 174 175 171 181 178 167 178 189 196 194 201 239 226 225 272 277 309 270 209 257 270 256 286 263 173 195 204 203 203 203 204 203 197 196 200 203 204 204 204 205 207 209 209 209 210 211 213 214 215 215 215 215 215 216 218 219 220 219 220 221 221 220 220 221 221 222 223 224 225 225 225 225 226 226 227 228 228 228 228 228 228 230 233
224 249 177 165 173 180 191 188 166 174 211 215 202 214 234 205 205 249 286 324 323 297 283 64 339 314 225 186 207 209 207 212 212 212 215 210 206 207 208 206 205 206 206 207 207 208 209 209 211 213 214 215 216 216 215 214 215 216 217 219 220 221 222 222 221 221 222 222 223 224 224 225 226 227 227 226 226 226 226 227 227 227 227 227 228 231
232 235 161 159 174 183 193 205 186 180 210 235 221 219 219 187 206 253 314 354 345 315 277 159 289 298 268 214 216 197 200 214 211 208 214 214 211 213 213 210 209 211 211 210 209 209 209 210 212 213 214 215 216 217 215 214 215 216 217 218 219 222 223 224 223 222 222 222 222 223 223 223 223 224 225 226 226 226 226 227 227 227 227 228 228 229
216 181 151 167 180 180 195 216 200 174 202 243 219 195 189 181 203 227 231 305 279 267 265 177 187 268 306 259 222 191 198 211 209 211 215 212 211 212 213 211 210 212 213 213 213 212 212 212 212 213 214 215 217 216 215 215 215 217 218 218 219 221 223 224 224 223 223 223 224 224 224 224 225 225 227 228 229 230 230 230 230 230 228 228 228 230
165 164 168 181 177 182 204 215 188 166 200 240 157 138 157 175 199 206 193 215 228 255 280 222 169 245 280 252 218 188 200 216 214 220 220 213 213 213 214 213 212 212 212 213 214 213 214 214 213 214 215 216 216 216 215 215 215 217 219 220 220 221 223 224 224 224 223 224 225 226 226 226 227 229 231 232 233 234 234 234 234 233 230 229 228 231
152 172 186 184 182 198 205 196 172 172 206 219 122 130 148 158 179 178 173 215 223 258 274 248 172 223 267 265 221 173 192 219 218 222 222 214 215 215 214 215 214 214 214 214 215 215 215 215 216 217 217 217 217 216 215 214 214 215 218 220 222 223 224 225 225 225 225 225 226 227 228 228 229 231 233 234 236 237 237 237 236 235 233 230 230 233
165 190 192 182 191 210 196 179 173 181 208 200 139 151 124 129 145 140 171 209 180 220 251 247 179 209 268 275 185 167 195 217 219 222 223 218 217 216 215 216 216 216 216 217 218 218 218 218 219 219 219 220 219 218 217 216 215 216 218 220 222 223 225 226 227 227 226 226 226 227 228 229 230 230 232 234 236 238 239 238 238 237 234 233 233 235
240 196 190 184 201 206 191 185 186 186 190 156 149 206 287 348 45 73 143 109 267 256 245 226 182 192 262 249 177 183 199 205 212 220 224 224 223 221 218 216 217 216 216 217 219 220 221 222 222 220 219 220 220 219 219 219 219 219 219 221 222 224 224 226 227 227 228 227 226 227 228 230 231 231 232 233 235 236 238 238 238 237 237 236 237 238
274 190 183 198 203 193 171 194 205 185 177 164 138 148 224 321 -0 307 -0 82 235 253 230 194 171 175 240 240 190 207 208 199 203 211 214 217 221 222 219 217 218 217 217 217 218 220 221 222 222 220 221 222 221 220 219 220 221 221 222 223 224 225 225 226 227 228 228 228 228 228 228 230 231 231 232 233 235 236 237 238 238 238 239 240 240 240
232 223 224 224 204 186 159 190 211 160 167 181 146 130 168 265 279 216 230 190 234 252 228 175 158 188 239 237 197 210 217 207 205 211 211 211 217 219 218 218 218 216 216 217 218 220 220 220 221 220 221 222 220 220 220 220 221 222 223 224 225 227 227 227 228 228 228 228 229 230 230 230 231 231 232 233 235 235 236 237 238 239 239 241 241 241
227 248 234 221 212 186 171 174 192 178 170 177 163 150 170 188 194 213 229 245 250 261 254 167 148 236 269 253 202 201 211 213 211 214 215 214 216 217 218 219 216 214 215 216 217 218 219 220 220 220 221 222 221 222 222 221 221 222 224 225 226 228 229 229 229 229 229 229 229 231 232 232 231 231 232 233 233 234 234 235 236 238 239 240 242 242
198 239 217 206 202 172 180 192 179 156 162 180 156 138 169 181 179 194 203 216 235 263 274 157 156 213 232 243 217 198 203 209 211 216 217 219 220 220 221 218 213 213 214 216 217 219 220 221 220 220 221 221 221 222 223 222 222 223 224 226 227 228 229 229 230 230 230 230 230 231 232 233 232 233 234 234 234 234 234 234 235 237 238 240 241 243
201 235 228 207 191 165 182 198 157 134 161 191 128 131 206 190 153 190 198 181 180 302 276 206 210 222 210 260 256 216 211 206 208 217 217 221 225 225 224 217 211 214 214 215 217 219 221 222 221 221 221 221 222 221 222 223 223 224 225 227 228 229 230 230 231 231 231 232 232 232 232 232 232 233 234 235 236 236 236 236 235 235 237 239 240 242
191 233 227 157 184 190 186 176 161 164 173 168 154 184 204 141 135 217 246 184 116 262 259 218 251 290 303 282 269 224 220 210 205 214 215 221 226 226 224 217 212 214 214 214 217 219 221 221 221 221 221 222 221 221 222 224 225 226 226 227 228 230 230 231 232 232 232 233 233 233 233 233 233 232 233 235 236 237 237 238 237 236 237 238 239 242
166 240 238 153 193 222 189 168 177 177 152 134 189 193 120 84 140 184 245 279 240 250 276 234 230 270 275 271 271 193 206 223 212 208 214 222 226 226 225 220 216 216 216 216 217 219 220 220 221 222 222 222 222 222 223 225 227 227 227 228 229 229 230 231 233 233 233 233 233 234 234 234 234 234 234 236 237 238 239 239 239 238 237 237 238 240
186 248 264 189 193 212 165 161 191 193 175 169 182 169 131 130 187 162 183 228 222 242 278 278 254 241 211 230 258 198 207 223 219 211 212 220 223 224 225 224 221 220 219 218 217 218 219 220 221 222 222 223 223 223 225 226 226 225 227 228 229 231 232 232 233 233 234 234 234 235 236 236 236 236 236 237 237 238 239 240 240 239 238 237 237 238
219 200 265 239 190 160 135 166 192 209 220 220 130 156 159 167 178 171 179 181 186 224 257 299 291 253 221 203 184 205 219 217 218 216 211 217 220 220 222 224 223 222 221 218 217 218 219 220 221 222 223 224 223 223 224 224 223 223 225 227 228 231 232 232 233 234 234 235 235 235 236 236 236 236 237 237 237 238 239 240 241 240 239 238 237 237
282 193 241 287 158 148 161 196 191 193 210 207 186 193 189 167 153 164 200 168 165 194 200 254 269 258 242 197 179 199 216 213 214 215 213 218 218 218 220 222 224 224 223 221 219 219 219 220 221 222 223 224 224 223 223 222 222 223 224 225 227 229 230 232 233 234 234 235 235 235 235 236 236 237 237 238 238 239 240 241 242 241 240 239 238 237
9 208 228 240 188 184 205 208 197 194 195 190 198 202 190 177 130 149 243 239 175 192 182 194 255 262 248 196 187 198 209 214 214 211 217 223 221 220 221 222 225 226 225 224 223 221 219 219 221 221 222 223 222 222 221 221 221 222 222 224 227 228 229 232 233 234 234 234 235 236 236 237 237 237 237 238 239 239 240 241 242 242 241 240 238 237
353 236 238 232 217 216 228 224 212 209 202 194 201 199 186 175 148 174 227 223 185 222 159 137 255 268 247 195 193 201 207 215 216 209 212 225 225 224 223 225 227 228 229 228 226 222 220 219 221 221 221 221 221 221 220 220 221 222 223 224 225 226 230 232 233 234 234 234 235 236 236 237 237 237 237 237 238 239 240 241 242 242 242 241 239 237
335 245 224 278 304 280 273 290 303 272 203 201 215 199 182 187 187 200 211 173 182 217 173 191 251 269 270 212 203 216 220 224 230 223 218 225 229 228 226 228 229 231 232 232 229 225 221 220 221 221 220 220 220 220 219 219 221 222 223 223 224 227 231 232 231 232 232 233 235 235 235 236 236 236 236 237 238 239 240 241 241 242 242 242 241 238
327 298 164 292 255 243 266 289 299 309 212 213 226 206 198 195 192 205 187 135 207 207 176 201 240 248 281 280 243 252 250 251 252 236 225 230 236 234 230 230 232 233 234 234 232 228 222 219 220 221 221 220 220 220 219 219 221 222 223 222 224 228 230 230 230 230 230 232 233 234 235 235 236 236 236 237 238 238 240 240 241 242 243 242 241 239
266 249 106 149 213 215 219 224 223 261 276 258 230 209 208 200 192 198 187 182 224 205 177 203 237 252 289 291 251 252 251 256 261 249 236 239 245 245 239 237 237 235 235 235 232 230 225 220 220 222 222 221 221 220 220 220 220 222 223 224 225 228 228 228 229 229 230 231 231 233 235 235 236 236 236 237 238 238 239 240 240 242 243 243 242 241
180 27 130 179 219 217 240 254 237 284 291 286 290 231 213 207 201 201 209 208 198 179 201 218 212 232 267 253 232 241 236 243 258 263 251 241 243 246 243 242 240 237 237 237 232 229 226 222 221 223 224 223 222 222 221 221 221 221 223 224 226 226 227 227 228 228 229 230 231 232 234 235 236 236 236 237 238 238 238 238 239 241 242 243 242 241
85 354 314 160 270 259 294 287 279 284 263 259 282 262 228 214 204 206 220 206 150 169 230 229 190 206 246 239 227 230 225 233 247 252 253 246 244 249 251 251 249 244 242 239 233 230 226 223 222 223 224 224 223 223 223 222 223 223 223 225 226 225 225 227 227 227 228 229 230 232 234 235 236 236 236 237 238 238 238 237 237 238 240 242 241 240
124 262 298 11 335 302 290 282 276 278 253 238 255 258 249 232 213 214 220 197 161 201 236 225 186 198 231 234 230 228 213 215 230 237 247 255 258 265 268 266 260 253 247 241 237 232 229 228 226 224 225 225 224 223 223 223 223 223 224 225 225 225 226 226 226 227 228 228 230 233 235 235 234 234 235 236 236 236 236 235 235 236 238 239 240 239
128 265 315 352 330 308 293 279 272 280 278 266 263 256 255 247 232 227 224 205 199 223 240 221 188 197 219 219 222 231 219 213 231 243 245 252 259 264 267 268 267 262 254 248 244 238 233 232 231 228 226 225 224 223 223 223 224 224 225 226 225 226 227 226 225 226 227 229 232 234 235 233 233 233 233 234 235 235 236 235 233 233 235 237 239 238
24 308 330 359 342 306 296 296 302 303 298 286 272 261 258 256 249 242 232 216 212 225 239 235 207 209 239 242 237 251 254 257 269 265 253 251 251 251 258 267 271 268 261 256 253 245 238 235 234 230 226 224 226 226 225 225 226 226 226 225 225 227 227 225 225 226 227 230 233 234 233 232 232 231 232 233 234 234 235 234 233 233 233 235 236 236
12 273 342 24 8 293 293 324 325 317 312 289 267 262 257 251 252 250 234 215 210 211 223 236 229 225 246 254 256 266 273 274 261 251 252 253 251 249 257 264 266 269 270 267 263 255 246 239 234 232 230 228 228 228 228 228 227 225 226 226 227 227 225 224 225 227 230 232 232 231 231 231 231 230 231 232 232 233 234 234 233 232 232 233 234 235
220 204 335 29 15 286 288 314 324 321 314 283 262 264 251 235 234 244 245 229 215 204 209 227 227 216 211 208 226 251 257 252 247 244 249 257 258 254 257 260 263 268 272 272 272 267 259 251 241 237 236 233 229 229 231 230 228 228 230 231 230 226 223 224 226 228 231 231 229 229 230 230 230 230 231 231 231 232 232 233 233 233 232 233 234 234
224 182 198 146 118 278 288 312 330 301 262 252 258 329 271 247 233 232 237 235 218 211 223 235 223 202 198 187 197 227 236 236 238 236 239 254 256 247 251 258 263 268 270 272 276 274 270 262 251 243 240 237 235 234 233 231 231 234 234 231 228 225 224 226 228 229 231 231 229 229 230 230 230 231 231 230 230 230 231 233 233 233 233 233 235 235
243 207 213 170 147 263 295 331 316 233 241 291 345 357 334 316 308 257 241 234 223 219 231 245 234 214 205 191 203 222 225 206 186 181 188 226 240 239 247 255 260 266 268 269 272 274 274 271 260 251 244 241 240 237 233 231 231 232 231 228 227 227 227 227 228 230 230 230 229 228 228 229 230 230 230 229 229 230 231 233 234 234 234 234 235 237
217 215 216 194 173 228 294 302 226 245 293 320 336 355 2 13 14 353 273 247 239 220 219 233 241 235 218 205 215 220 204 155 133 119 131 194 228 234 241 248 254 259 262 264 266 270 274 273 265 256 250 245 242 238 235 234 232 229 228 228 228 228 227 226 226 228 228 229 229 229 228 229 229 228 228 228 228 229 230 232 234 234 235 235 236 238
201 202 198 207 199 183 227 254 259 300 319 320 340 14 21 358 346 349 267 268 277 238 208 219 234 245 242 225 213 197 167 145 139 105 109 167 208 221 230 241 249 254 258 261 264 268 270 267 260 254 249 245 241 239 237 235 232 229 227 226 226 226 225 224 225 228 229 230 231 231 229 228 227 227 227 227 228 230 232 233 235 235 235 236 236 237
200 199 186 189 201 182 210 262 289 310 295 258 239 307 296 272 264 180 180 284 304 342 318 249 232 237 240 222 189 171 152 147 206 229 166 156 171 178 195 221 238 249 258 258 258 263 265 261 255 249 246 244 243 242 241 236 233 230 227 225 225 225 225 226 229 231 233 233 234 233 231 228 228 229 230 231 232 234 234 235 236 236 237 237 237 238
205 215 211 206 203 180 191 227 234 239 244 236 246 285 300 300 256 127 148 277 305 1 348 320 266 246 237 200 164 155 147 166 224 227 168 139 132 126 129 139 144 165 262 253 245 252 254 252 250 246 245 247 248 246 243 238 234 231 229 228 227 227 228 231 234 235 237 237 236 234 232 230 231 232 232 234 236 236 237 237 238 237 237 238 239 240
201 217 230 228 214 190 195 219 229 236 252 264 292 311 320 332 83 129 211 261 315 341 332 317 289 271 253 204 167 158 176 200 200 185 154 132 119 112 110 107 98 90 77 72 73 275 260 250 250 248 249 257 258 249 244 239 235 232 231 231 229 229 232 236 238 239 240 239 236 234 234 233 234 235 235 236 237 237 238 238 238 238 238 238 238 239
201 206 220 229 226 206 201 222 259 253 251 276 296 316 334 350 100 159 213 280 320 319 316 312 300 294 276 216 191 180 182 167 149 146 141 125 114 111 106 100 92 83 76 73 72 66 58 52 39 285 267 267 258 244 242 240 235 233 232 230 229 232 237 239 239 239 239 238 236 236 236 236 236 237 238 239 238 237 238 239 239 239 239 238 238 237
199 199 212 217 224 219 199 208 250 256 256 264 268 339 10 25 170 221 296 317 320 313 314 322 325 329 327 239 207 168 136 132 132 135 132 121 115 110 103 102 100 90 80 76 75 74 72 70 69 67 0 246 239 232 232 239 239 236 233 231 234 239 241 239 238 238 237 236 236 236 237 237 238 238 239 238 236 234 235 237 238 238 239 238 238 237
206 225 225 206 208 216 198 200 219 229 239 245 243 17 37 58 235 288 310 322 331 326 325 335 348 2 14 34 169 134 128 128 125 124 119 112 109 101 95 98 98 89 80 73 69 68 68 71 74 75 79 94 192 216 211 224 236 238 238 240 244 247 245 242 242 242 240 239 238 238 238 239 239 239 238 236 235 234 235 235 235 236 237 237 236 235
213 211 226 213 207 198 196 205 204 193 208 219 182 120 107 238 284 296 300 331 348 342 337 343 1 26 49 76 111 121 120 118 117 118 111 104 102 95 87 83 79 77 73 66 63 62 61 65 69 71 77 84 91 119 164 193 213 229 241 248 253 253 251 250 249 246 244 243 243 242 242 240 240 239 238 237 236 235 236 235 235 235 235 235 235 234
254 272 297 281 260 246 243 230 156 131 139 124 115 122 129 107 321 307 300 351 3 353 348 354 12 42 65 70 61 95 102 101 106 110 105 98 91 81 75 71 68 68 66 62 62 59 57 58 59 60 67 73 78 91 112 144 178 206 227 239 244 247 249 252 251 249 248 248 247 246 244 243 241 240 239 239 237 236 236 236 235 233 232 232 232 233
286 297 295 282 287 286 262 222 137 124 136 129 117 110 94 57 11 347 343 2 24 12 353 357 17 52 83 84 61 54 74 86 92 93 91 87 80 72 69 66 61 59 58 58 53 45 47 52 51 51 55 56 59 66 68 83 145 189 211 224 232 235 237 242 246 249 250 251 250 250 248 245 244 243 241 240 239 239 239 237 236 236 234 231 229 229
297 311 301 270 280 282 251 189 128 137 150 133 113 96 80 63 40 25 7 359 17 26 9 16 43 71 92 92 76 53 56 74 82 81 80 79 75 72 69 65 60 54 49 45 37 28 26 28 29 34 39 38 39 39 27 15 358 313 250 243 245 238 235 237 241 246 250 252 254 255 252 250 250 248 245 243 241 240 239 237 236 236 234 232 229 227
312 339 333 294 275 270 260 256 114 139 147 134 115 91 80 77 56 36 22 8 14 24 26 56 84 93 96 94 87 71 59 65 73 75 77 78 75 72 70 67 63 59 53 48 40 29 18 10 10 10 6 3 359 348 332 316 311 310 302 296 288 272 257 247 244 247 251 253 256 258 257 257 256 253 250 248 244 242 240 237 235 233 233 234 233 230
279 298 297 283 288 284 270 253 145 128 123 127 132 115 90 81 59 38 27 14 12 23 27 38 88 106 102 98 96 88 77 73 78 78 79 79 76 72 70 68 65 62 58 53 45 40 35 29 23 15 3 353 344 330 318 305 296 290 286 289 289 287 282 270 257 253 251 251 253 255 256 258 258 256 256 254 250 247 245 242 239 237 237 239 239 237
268 267 259 264 277 274 259 233 177 160 206 159 141 130 115 97 67 46 35 19 11 26 28 15 28 93 101 97 94 92 89 85 90 94 91 85 80 74 68 67 65 63 58 52 44 40 37 35 35 35 30 13 352 331 314 302 292 284 280 280 280 284 288 286 279 272 262 255 252 253 255 256 255 253 253 252 251 250 248 245 242 241 241 242 241 240
248 259 263 258 258 271 285 287 280 136 183 172 154 148 153 159 140 86 63 27 3 20 35 12 5 52 88 92 88 90 94 92 100 105 98 89 83 77 70 66 64 61 58 53 49 44 39 34 31 32 32 28 20 1 330 311 301 300 302 299 294 293 292 290 290 289 284 275 265 258 257 258 257 254 250 247 247 247 246 245 243 241 241 241 240 239